Location: Newark
(50.0953°N, 2.1719°E)
Time: 00:42:38
(UTC+00:00)

N. Korean satellite - Pass Details

Date: 25 January 2020
Orbit: 456 x 505 km, 97.2° (Epoch: 20 February)

Event Time Altitude Azimuth Distance (km) Brightness Sun altitude
Rises 17:55:35 0° 213° (SSW) 2,465 10.9 -13.2°
Reaches altitude 10° 17:58:35 10° 243° (WSW) 1,599 10.5 -13.6°
Maximum altitude 18:00:11 13° 271° (W) 1,441 10.2 -13.9°
Drops below altitude 10° 18:01:48 10° 299° (WNW) 1,609 9.9 -14.2°
Sets 18:04:50 0° 329° (NNW) 2,497 10.4 -14.6°
